RS28S (SXC3-214 MIET-A*) (53377 NORAD) Tracking and Keplerian Element Data

This shows tracking and keplerian element data for the satellite.

Feedback or suggestion? Click here.




ElementValue
Catalog53377
NameRS28S (SXC3-214 MIET-A*)
Epoch Orbit745
Epoch Day270.21036319
Epoch Year2022
RAAN171.3275
Inclination97.4315
Eccentricity0.0002928
Argument of Perigee47.5112
Mean Anonmoly56.7122
Mean Motion15.25265906
Decay Rate8.06E-05
L11 53377U 22096H 22270.21036319 .00008060 00000+0 32323-3 0 9991
L22 53377 97.4315 171.3275 0002928 47.5112 56.7122 15.25265906 7453

Live tracking and technical data element details for RS28S (SXC3-214 MIET-A*) (NORAD 53377). RS28S (SXC3-214 MIET-A*) can be tracked NOW for your location showing map with azimuth and elevation plus other details from your city location.

Track the satellite on the map from your city or location and see movement details for azimuth, elevation, latitude, longitude, range, height, and movement on the map or in text.







IsCatalogInMostPopularTable: catalog: 53377, numindb: 2
Update: records affected: 1



GetName: 53377 RS28S (SXC3-214 MIET-A*)

Hit Count: updated at: Wed, 28 Sep 2022 22:11:26 GMT